Hourly Data Report for October 16, 2013

All times are specified in Local Standard Time (LST). Add 1 hour to adjust for Daylight Saving Time where and when it is observed.

PETAWAWA AWOS 2
ONTARIO

45°57'00.000" N
77°19'00.000" W
130.10 m
6106396
71625
YWA

Download Data

Hourly Data (October 2013)
Hourly Data Report for October 16, 2013
Temp Definition
°C
Dew Point Temp Definition
°C
Rel Hum Definition
%
Wind Dir Definition
10's deg

Wind Spd Definition
km/h
Visibility Definition
km
Stn Press Definition
kPa
Hmdx Definition


Wind Chill Definition


Weather Definition


TIME
00:00 12.5 10.3 86 12 6 15.0 99.87      
01:00 12.6 10.5 87 11 7 15.0 99.79     Rain
02:00 12.6 10.7 88 10 11 15.0 99.67      
03:00 12.5 11.1 91 11 7 12.9 99.58      
04:00 12.3 11.4 94 10 11 8.0 99.48     Rain
05:00 12.0 11.7 98 10 9 4.8 99.43     Rain
06:00 12.4 12.1 98 10 13 2.1 99.34     Moderate Rain
07:00 13.1 12.9 99 12 13 5.6 99.28     Rain
08:00 13.2 13.0 99 13 15 8.0 99.28      
09:00 14.0 13.6 97 12 7 12.9 99.26      
10:00 17.2 15.3 89 16 9 15.0 99.24      
11:00 18.9 15.4 80 15 9 15.0 99.22      
12:00 19.5 15.1 76 16 9 15.0 99.13      
13:00 20.9 13.9 64 19 13 15.0 99.06      
14:00 21.0 13.6 63 16 19 15.0 98.99      
15:00 20.9 13.5 63 15 17 15.0 98.90      
16:00 20.1 13.4 65 15 19 15.0 98.89      
17:00 15.2 14.0 93 26 15 0.6 98.96     Heavy Rain
18:00 15.1 13.1 88 27 4 15.0 98.97      
19:00 14.2 11.7 85 25 6 15.0 99.01      
20:00 12.5 10.6 88 22 6 15.0 99.02      
21:00 12.7 9.0 78 25 4 15.0 99.09      
22:00 10.5 10.2 98   0 15.0 99.07      
23:00 11.1 9.6 90 21 7 15.0 99.06     Rain

Notes on Data Quality.

Legend

  • E = Estimated
  • M = Missing
  • NA = Not Available
  • ‡ = Partner data that is not subject to review by the National Climate Archives
Date modified: